Погода Lublin Radawiec

Погода Lublin Radawiec : погода сейчас, прогноз погоды и архив. Всё, что Вы хотите узнать о погоде Lublin Radawiec!

Поиск расширенной информации на нашем сайте:

Другие новости

Новости СМИ2

Главная страница сайта

Новости сайта

03.07.2017

Напоминаем, что на нашем специализированном сайте Метеоцентр.Азия вы можете получить высокодетализированные автоматические прогнозы погоды по пунктам России, СНГ и мира в авиационном формате (включающие направление и скорость ветра, видимость, явления погоды, количество и форму облачности, нижнюю и верхнюю границу облачности).


Погода Lublin Radawiec - сегодня

Время (UTC), дата Ветер
(°,м/с) 
Видим.   Явления Облачность Т
(°С)
Тd
(°С)
f(%) Тe
(°С)
Pmin
(гПа)
dP
(гПа)
Po
(мм)
O2
(г/м3)
Тmin Tmax R s Состояние
почвы
12 20.11.17 290 (З) 8{12}  50000 м  в посл. час ливневой снег  10/10 1000 м кучево-дожд. 
[Cb cap]
+1.5 -0.3 88 -2  1009.8  1.9  735  295         
15 20.11.17 290 (З) 5{12}  45000 м    9/9 1000 м 
[Sc]
+1.4 -1.9 79 -1  1011.4  1.6  736  295           
18 20.11.17 260 (З) 3{12}  22000 м    10/10 1000 м 
[Sc]
+1.3 -1.2 83 1012.1  0.7  737  296  +0.1  +1.7     
21 20.11.17 280 (З) 20000 м    9/9 1000 м 
[Sc]
+0.6 -1.1 88 -1  1012.7  0.5  737  296           
00 21.11.17 280 (З) 6000 м  слаб. снег  10/8 210 м средняя 
[Frnb|As op]
+0.5 -0.4 94 -1  1012.6  -0.1  737  296      0.1     
03 21.11.17 300 (СЗ) 9000 м  дымка{снег}  9/9 300 м 
[Sc]
+0.4 -0.6 93 -1  1013  0.3  737  297           
06 21.11.17 290 (З) 10 км  {снег}  8/8 600 м 
[Sc]
-0.9 -1.7 94 -2  1014  0.9  738  299  -1  +1.4  0.2    замёрзшая 
09 21.11.17 290 (З) 8000 м  дымка  9/9 210 м 
[Cu Sc]
+0.7 -0.5 92 1014.8  0.9  739  297           
12 21.11.17 260 (З) 15000 м    9/9 400 м 
[Cu Sc]
+2.3 -0.5 82 +1  1014.2  -0.4  738  295           
15 21.11.17 210 (ЮЗ) 8000 м  дымка  10/10 1000 м 
[Sc]
+1.7 -0.5 85 +2  1013.9  -0.4  738  296           
18 21.11.17 190 (Ю) 5000 м  дымка  10/6 1000 м верхняя 
[Sc|Cs]
+0.9 -0.3 92 +2  1013.7  -0.2  738  296  -0.9  +2.5       
21 21.11.17 180 (Ю) 5000 м  дымка  10/10 1000 м 
[Sc]
+0.9 +0.1 94 +2  1013.9  0.2  738  296           
00 22.11.17 210 (ЮЗ) 4000 м  дымка  10/10 120 м 
[St]
+1 +0.4 96 +2  1013.9  738  296           
03 22.11.17 200 (Ю) 4000 м  дымка  9/9 1000 м 
[Sc]
+0.2 -0.3 96 +1  1014.3  0.3  738  297           
06 22.11.17 130 (ЮВ) 1800 м  дымка  10/10 300 м 
[Sc]
-0.4 -0.8 97 1014.9  0.5  739  298  -1.2  +1.2      влажная 
09 22.11.17 140 (ЮВ) 6000 м  дымка  9/9 210 м 
[St]
+1.4 +0.5 94 1015.2  0.5  739  296           
12 22.11.17 130 (ЮВ) 9000 м  дымка  10/0 средняя 
[Ac As]
+2.2 +0.4 88 1014.3  -0.8  738  295           
15 22.11.17 140 (ЮВ) 4000 м  слаб. дождь  10/8 210 м средняя 
[Frnb|As op]
+1.6 +1 96 -1  1014.7  0.3  739  296           
18 22.11.17 160 (Ю) 3200 м  слаб. морось{дождь}  10/10 120 м 
[St]
+1.5 +1.2 98 -1  1015.7  739  296  -0.5  +2.4     
21 22.11.17 170 (Ю) 1400 м  слаб. морось  10/10 60 м 
[St]
+1.9 +1.7 99 1015.9  0.2  740  296           
00 23.11.17 160 (Ю) 0600 м  туман{морось}  10/10 60 м 
[St]
+2.6 +2.4 99 +2  1016.3  0.5  740  295      0.1     
03 23.11.17 160 (Ю) 0400 м  туман  10/10 60 м 
[St]
+3 +3 100 +2  1016.9  0.6  740  295           
06 23.11.17 160 (Ю) 1500 м  дымка{туман}  10/10 60 м 
[St]
+3.5 +3.5 100 +3  1017.4  0.5  741  294  +1.5  +3.5  0.1    влажная 
09 23.11.17 170 (Ю) 1200 м  в посл. час туман  10/10 30 м 
[St]
+4.4 +4.2 99 +3  1017.5  0.2  741  293           
12 23.11.17 170 (Ю) 20000 м  {туман}  9/0 верхняя 
[Cs]
+7.9 +5.1 82 +7  1016.1  -1  740  289           
Время (UTC), дата Ветер
(°,м/с) 
Видим.   Явления Облачность Т
(°С)
Тd
(°С)
f(%) Тe
(°С)
Pmin
(гПа)
dP
(гПа)
Po
(мм)
O2
(г/м3)
Тmin Tmax R s Состояние
почвы

Для получения пояснительной информации подведите курсор к названию столбца.

ПОГОДА Lublin Radawiec - архив

Всё, что Вы хотите узнать о погоде Lublin Radawiec - удобно и подробно!

Выберите нужную дату (начиная с 1 января 2015* года) и нажмите кнопку "Найти".
Будут отображены архивные сводки погоды по пункту Lublin Radawiec, начиная с указанной даты.


Отображать данные в формате CSV (для использования в таблицах Excel)


Внимание! Наш архив погоды предназначен исключительно для личного некоммерческого использования в познавательных целях. Если Вам необходимы официальные справки о состоянии погоды (для производственных, юридических, коммерческих и т.п. целей), обращайтесь в органы Росгидромета.

*Примечание: данная дата относится к архиву по метеостанциям СССР (Россия, СНГ, Балтия).
Архив по метеостанциям Зарубежной Европы и Азии (кроме Китая) хранится 10 дней, по другим регионам земного шара (Китай, Африка, Америка, Австралия, Океания) - 1 день.

Lublin Radawiec - район местоположения метеостанции


Название, широта, долгота, высота метеостанции:
Lublin Radawiec 51.2°ш. 22.4°д. 240 м над ур. моря [Poland]

Дополнительная информация

В oтличие oт бoльшинства пoгoдных сайтoв мы публикуем пoдрoбную метеoинфoрмацию в детальнoм прoфессиoнальнoм фoрмате.

Характеристики температуры и влажнoсти вoздуха измеряются на высoте 2 м в тени вдали oт зданий и деревьев.
Скoрoсть ветра измеряется на высoте 10 м (на урoвне рoста челoвека скoрoсть ветра ниже в 1.5-2 раза). Если метеoстанция нахoдится в гoрoде или в лесу, тo скoрoсть ветра занижена на 2-4 м/с пo сравнению с oткрытым местoм. Скoрoсть ветра над акватoриями крупных рек и oзёр, а также на вершинах хoлмoв на 2-5 м/с выше, чем в oбычных услoвиях.
Атмoсфернoе давление в разных тoчках местнoсти мoжет значительнo oтличаться oт давления на метеoстанции, в зависимoсти oт услoвий рельефа (при пoдъёме на 10 м давление пoнижается примернo на 1 мм рт.ст.).